This demonstration page uses our WeatherBlox Daily Observations layout. Learn more.

Left ArrowRight Arrow

Hourly Observations for August 3, 2020

Temp ( °F °C ) Dew Point ( °F °C ) Humidity (%) Winds ( mph kmh ) Pressure ( in mb ) Visibility ( mi km ) Precip ( " mm )
12:54 am 00:54 Clear 60 15.6 55 12.8 84 84 NNW 7 11 30.12 1020 10 16.0934 0 0
1:54 am 01:54 Clear 57 13.9 53 11.7 87 87 N 6 9 30.13 1020 10 16.0934 0 0
2:54 am 02:54 Clear 57 13.9 53 11.7 87 87 N 6 9 30.13 1020 10 16.0934 0 0
3:54 am 03:54 Clear 55 12.8 52 11.1 90 90 N 5 7 30.13 1020 10 16.0934 0 0
4:54 am 04:54 Mostly Cloudy 55 12.8 52 11.1 90 90 N 5 7 30.13 1020 10 16.0934 0 0
5:54 am 05:54 Clear 56 13.3 52 11.1 87 87 NW 3 6 30.14 1021 10 16.0934 0 0
6:54 am 06:54 Mostly Cloudy 57 13.9 54 12.2 90 90 N 3 6 30.14 1021 9 14.48406 0 0
7:54 am 07:54 Mostly Sunny 61 16.1 55 12.8 81 81 N 3 6 30.15 1021 9 14.48406 0 0
8:54 am 08:54 Cloudy 66 18.9 56 13.3 70 70 NE 7 11 30.16 1021 9 14.48406 0 0
9:54 am 09:54 Mostly Sunny 70 21.1 57 13.9 64 64 NE 6 9 30.18 1022 9 14.48406 0 0
10:54 am 10:54 Mostly Cloudy 71 21.7 55 12.8 57 57 NE 8 13 30.19 1022 10 16.0934 0 0
11:54 am 11:54 Mostly Sunny 73 22.8 53 11.7 50 50 ENE 9 15 30.18 1022 10 16.0934 0 0
12:54 pm 12:54 Cloudy 72 22.2 52 11.1 50 50 ENE 8 13 30.18 1022 10 16.0934 0 0
1:54 pm 13:54 Partly Cloudy 74 23.3 53 11.7 48 48 NE 6 9 30.17 1022 10 16.0934 0 0
2:54 pm 14:54 Cloudy 74 23.3 52 11.1 46 46 NE 6 9 30.15 1021 10 16.0934 0 0
3:54 pm 15:54 Mostly Cloudy 75 23.9 53 11.7 46 46 NE 8 13 30.14 1021 10 16.0934 0 0
4:54 pm 16:54 Mostly Cloudy 73 22.8 52 11.1 48 48 NE 5 7 30.13 1020 10 16.0934 0 0
5:54 pm 17:54 Mostly Sunny 75 23.9 52 11.1 45 45 E 9 15 30.11 1020 9 14.48406 0 0
6:54 pm 18:54 Mostly Cloudy 75 23.9 52 11.1 45 45 NNE 7 11 30.11 1020 9 14.48406 0 0
7:54 pm 19:54 Sunny 72 22.2 51 10.6 48 48 E 6 9 30.11 1020 9 14.48406 0 0
8:54 pm 20:54 Clear 68 20 51 10.6 55 55 ESE 7 11 30.1 1019 10 16.0934 0 0
9:54 pm 21:54 Clear 67 19.4 51 10.6 57 57 Calm 30.12 1020 10 16.0934 0 0
10:54 pm 22:54 Clear 65 18.3 53 11.7 66 66 Calm 30.15 1021 10 16.0934 0 0
11:54 pm 23:54 Clear 57 13.9 52 11.1 83 83 Calm 30.17 1022 10 16.0934 0 0

Powered by AerisWeather